カタログに戻る

STARLINK-5408

運用中通信VLEO
NORAD 54810·PAYLOAD·🇺🇸 United States

打ち上げ Dec 17, 2022 から Cape Canaveral Space Force Station

Loading…

次のパス (今後24時間)

TLE

最新Source: CelesTrak SupGP

元期: Sep 15, 2026, 02:36 UTC

1 54810C 22175BE  26258.10881944 -.00046674  00000+0 -14163-2 0  2586
2 54810  53.1572 242.9430 0001357  95.8021 169.2042 15.33570645    12

AllMySatでSTARLINK-5408をリアルタイム追跡

Download on the App Store